When you browse on this site, cookies collect data to enhance your experience and personalize the content and advertising you see.
Visit our Privacy Policy to learn more. By continuing to use the site, you agree to this use of cookies and data.
  • In Hungary
  • List of Countries
  • For 7 days
  • Water Temperature
  • Satellite Maps
  • Weather Map
  • News
  • Weather Widgets
  • user-avatar
    Login

    Hourly Weather Haradok

    Today, 17 January, Thursday

    Time Temperature Precipitation Wind Pressure Humidity
    00:00 -13°C° 0 mm 3 mps 738 mmHg 95%
    01:00 -13°C° 0 mm 3 mps 738 mmHg 94%
    02:00 -12°C° 0 mm 4 mps 737 mmHg 93%
    03:00 -11°C° 0.2 mm 5 mps 737 mmHg 93%
    04:00 -10°C° 0.2 mm 5 mps 736 mmHg 93%
    05:00 -8°C° 0.2 mm 6 mps 735 mmHg 92%
    06:00 -6°C° 0.3 mm 6 mps 735 mmHg 92%
    07:00 -4°C° 0.3 mm 6 mps 734 mmHg 91%
    08:00 -2°C° 0.3 mm 7 mps 734 mmHg 90%
    09:00 -2°C° 0.2 mm 7 mps 733 mmHg 91%
    10:00 -2°C° 0.2 mm 7 mps 733 mmHg 92%
    11:00 -2°C° 0.2 mm 7 mps 733 mmHg 92%
    12:00 -1°C° 0.4 mm 7 mps 732 mmHg 92%
    13:00 -1°C° 0.4 mm 7 mps 732 mmHg 92%
    14:00 -1°C° 0.4 mm 7 mps 731 mmHg 91%
    15:00 -2°C° 0.4 mm 7 mps 731 mmHg 90%
    16:00 -2°C° 0.4 mm 7 mps 731 mmHg 88%
    17:00 -2°C° 0.4 mm 7 mps 730 mmHg 87%
    18:00 -2°C° 0.3 mm 7 mps 731 mmHg 87%
    19:00 -2°C° 0.3 mm 7 mps 731 mmHg 88%
    20:00 -2°C° 0.3 mm 7 mps 731 mmHg 89%
    21:00 -2°C° 0.1 mm 7 mps 732 mmHg 88%
    22:00 -2°C° 0.1 mm 7 mps 732 mmHg 88%
    23:00 -2°C° 0.1 mm 6 mps 733 mmHg 87%

    Tomorrow, 18 January, Friday

    Time Temperature Precipitation Wind Pressure Humidity
    00:00 -2°C° 0 mm 6 mps 733 mmHg 88%
    01:00 -2°C° 0 mm 6 mps 734 mmHg 88%
    02:00 -2°C° 0 mm 6 mps 734 mmHg 89%
    03:00 -2°C° 0 mm 6 mps 734 mmHg 88%
    04:00 -2°C° 0 mm 6 mps 734 mmHg 88%
    05:00 -1°C° 0 mm 5 mps 735 mmHg 88%
    06:00 -1°C° 0.1 mm 5 mps 735 mmHg 89%
    07:00 -1°C° 0.1 mm 4 mps 735 mmHg 90%
    08:00 -1°C° 0.1 mm 4 mps 735 mmHg 91%
    09:00 -1°C° 0.1 mm 4 mps 735 mmHg 92%
    10:00 -1°C° 0.1 mm 4 mps 735 mmHg 93%
    11:00 -1°C° 0.1 mm 3 mps 735 mmHg 94%
    12:00 -1°C° 0.9 mm 4 mps 735 mmHg 94%
    13:00 -1°C° 0.9 mm 5 mps 735 mmHg 94%
    14:00 -2°C° 0.9 mm 6 mps 735 mmHg 93%
    15:00 -1°C° 0.7 mm 5 mps 735 mmHg 93%
    16:00 -2°C° 0.7 mm 5 mps 735 mmHg 93%
    17:00 -2°C° 0.7 mm 5 mps 735 mmHg 92%
    18:00 -5°C° 0.4 mm 5 mps 736 mmHg 91%
    19:00 -7°C° 0.4 mm 5 mps 737 mmHg 90%
    20:00 -8°C° 0.4 mm 5 mps 737 mmHg 89%
    21:00 -9°C° 0 mm 4 mps 738 mmHg 89%
    22:00 -9°C° 0 mm 4 mps 739 mmHg 89%
    23:00 -10°C° 0 mm 4 mps 740 mmHg 89%

    Day after tomorrow, 19 January, Saturday

    Time Temperature Precipitation Wind Pressure Humidity
    00:00 -10°C° 0 mm 4 mps 741 mmHg 91%
    01:00 -11°C° 0 mm 4 mps 742 mmHg 92%
    02:00 -12°C° 0 mm 3 mps 742 mmHg 93%
    03:00 -11°C° 0 mm 4 mps 743 mmHg 93%
    04:00 -11°C° 0 mm 4 mps 743 mmHg 93%
    05:00 -11°C° 0 mm 4 mps 743 mmHg 93%
    06:00 -11°C° 0 mm 4 mps 744 mmHg 93%
    07:00 -11°C° 0 mm 4 mps 744 mmHg 93%
    08:00 -11°C° 0 mm 4 mps 744 mmHg 93%
    09:00 -10°C° 0 mm 4 mps 745 mmHg 92%
    10:00 -10°C° 0 mm 4 mps 745 mmHg 91%
    11:00 -9°C° 0 mm 4 mps 745 mmHg 90%
    12:00 -8°C° 0 mm 4 mps 745 mmHg 89%
    13:00 -7°C° 0 mm 4 mps 746 mmHg 89%
    14:00 -7°C° 0 mm 5 mps 746 mmHg 88%
    15:00 -7°C° 0 mm 4 mps 746 mmHg 88%
    16:00 -8°C° 0 mm 4 mps 746 mmHg 89%
    17:00 -9°C° 0 mm 4 mps 746 mmHg 90%
    18:00 -7°C° 0.1 mm 3 mps 746 mmHg 92%
    19:00 -7°C° 0.1 mm 3 mps 747 mmHg 93%
    20:00 -7°C° 0.1 mm 3 mps 747 mmHg 95%
    21:00 -7°C° 0.6 mm 3 mps 747 mmHg 94%
    22:00 -7°C° 0.6 mm 4 mps 747 mmHg 93%
    23:00 -6°C° 0.6 mm 5 mps 747 mmHg 91%

    20 January, Sunday

    Time Temperature Precipitation Wind Pressure Humidity
    00:00 -5°C° 0.2 mm 4 mps 747 mmHg 92%
    01:00 -5°C° 0.2 mm 4 mps 747 mmHg 92%
    02:00 -7°C° 0.2 mm 4 mps 748 mmHg 92%
    03:00 -7°C° 0 mm 3 mps 748 mmHg 93%
    04:00 -8°C° 0 mm 3 mps 748 mmHg 93%
    05:00 -9°C° 0 mm 3 mps 748 mmHg 94%
    06:00 -9°C° 0 mm 3 mps 748 mmHg 94%
    07:00 -9°C° 0 mm 3 mps 748 mmHg 94%
    08:00 -9°C° 0 mm 3 mps 748 mmHg 94%
    09:00 -9°C° 0 mm 3 mps 748 mmHg 94%
    10:00 -9°C° 0 mm 4 mps 748 mmHg 94%
    11:00 -9°C° 0 mm 4 mps 748 mmHg 94%
    12:00 -8°C° 0.1 mm 4 mps 748 mmHg 93%
    13:00 -7°C° 0.1 mm 5 mps 747 mmHg 91%
    14:00 -6°C° 0.1 mm 5 mps 747 mmHg 90%
    15:00 -6°C° 0.1 mm 5 mps 747 mmHg 90%
    16:00 -5°C° 0.1 mm 5 mps 747 mmHg 91%
    17:00 -4°C° 0.1 mm 4 mps 747 mmHg 91%
    18:00 -4°C° 0.1 mm 4 mps 746 mmHg 91%
    19:00 -5°C° 0.1 mm 4 mps 746 mmHg 92%
    20:00 -5°C° 0.1 mm 4 mps 746 mmHg 92%
    21:00 -6°C° 0 mm 5 mps 746 mmHg 92%
    22:00 -7°C° 0 mm 5 mps 745 mmHg 92%
    23:00 -8°C° 0 mm 5 mps 745 mmHg 93%

    21 January, Monday

    Time Temperature Precipitation Wind Pressure Humidity
    00:00 -7°C° 0.4 mm 5 mps 745 mmHg 93%
    01:00 -7°C° 0.4 mm 5 mps 744 mmHg 93%
    02:00 -7°C° 0.4 mm 5 mps 744 mmHg 93%
    03:00 -8°C° 0.2 mm 5 mps 744 mmHg 92%
    04:00 -8°C° 0.2 mm 4 mps 744 mmHg 92%
    05:00 -8°C° 0.2 mm 4 mps 744 mmHg 91%
    06:00 -9°C° 0 mm 4 mps 745 mmHg 91%
    07:00 -10°C° 0 mm 4 mps 745 mmHg 90%
    08:00 -11°C° 0 mm 4 mps 745 mmHg 90%
    09:00 -11°C° 0 mm 4 mps 746 mmHg 88%
    10:00 -12°C° 0 mm 5 mps 747 mmHg 86%
    11:00 -12°C° 0 mm 5 mps 747 mmHg 84%
    12:00 -12°C° 0 mm 5 mps 748 mmHg 85%
    13:00 -12°C° 0 mm 5 mps 748 mmHg 85%
    14:00 -11°C° 0 mm 4 mps 748 mmHg 86%
    15:00 -14°C° 0 mm 4 mps 749 mmHg 88%
    16:00 -14°C° 0 mm 3 mps 749 mmHg 91%
    17:00 -15°C° 0 mm 3 mps 749 mmHg 93%
    18:00 -15°C° 0 mm 3 mps 749 mmHg 93%
    19:00 -15°C° 0 mm 3 mps 749 mmHg 94%
    20:00 -15°C° 0 mm 3 mps 749 mmHg 94%
    21:00 -15°C° 0 mm 3 mps 749 mmHg 95%
    22:00 -14°C° 0 mm 3 mps 749 mmHg 95%
    23:00 -14°C° 0 mm 3 mps 749 mmHg 95%

    22 January, Tuesday

    Time Temperature Precipitation Wind Pressure Humidity
    00:00 -14°C° 0 mm 3 mps 749 mmHg 95%
    01:00 -14°C° 0 mm 4 mps 749 mmHg 94%
    02:00 -14°C° 0 mm 4 mps 749 mmHg 94%
    03:00 -14°C° 0 mm 4 mps 748 mmHg 94%
    04:00 -13°C° 0 mm 3 mps 748 mmHg 94%
    05:00 -14°C° 0 mm 3 mps 748 mmHg 94%
    06:00 -14°C° 0.2 mm 4 mps 748 mmHg 94%
    07:00 -12°C° 0.2 mm 4 mps 748 mmHg 94%
    08:00 -12°C° 0.2 mm 4 mps 748 mmHg 94%
    09:00 -11°C° 0.4 mm 4 mps 747 mmHg 94%
    10:00 -11°C° 0.4 mm 5 mps 747 mmHg 93%
    11:00 -10°C° 0.4 mm 5 mps 747 mmHg 93%
    12:00 -8°C° 0.3 mm 5 mps 747 mmHg 93%
    13:00 -7°C° 0.3 mm 5 mps 747 mmHg 93%
    14:00 -7°C° 0.3 mm 4 mps 747 mmHg 93%
    15:00 -7°C° 0.3 mm 4 mps 747 mmHg 93%
    16:00 -5°C° 0.3 mm 4 mps 747 mmHg 93%
    17:00 -5°C° 0.3 mm 4 mps 747 mmHg 94%
    18:00 -5°C° 0.4 mm 3 mps 747 mmHg 95%
    19:00 -6°C° 0.4 mm 3 mps 747 mmHg 95%
    20:00 -5°C° 0.4 mm 2 mps 747 mmHg 96%
    21:00 -6°C° 0.2 mm 2 mps 747 mmHg 96%
    22:00 -7°C° 0.2 mm 2 mps 748 mmHg 96%
    23:00 -8°C° 0.2 mm 2 mps 748 mmHg 96%
    Show more